Regional Weather Roundup
Issued by NWS

Home | Current Version | Previous Version | Graphics & Text | Print | Product List | Glossary On
Versions: 1 2 3 4 5 6 7 8 9 10 11 12 13 14 15 16 17 18 19 20 21 22 23 24 25 26 27 28 29 30 31 32 33 34 35 36 37 38 39 40 41 42 43 44 45 46 47 48 49 50
000
ASUS43 KLOT 180600
RWRIL

ILLINOIS REGIONAL WEATHER ROUNDUP
NATIONAL WEATHER SERVICE CHICAGO/ROMEOVILLE IL
1200 AM CST THU DEC 18 2014

NOTE: "FAIR" INDICATES FEW OR NO CLOUDS BELOW 12,000 FEET WITH NO
SIGNIFICANT WEATHER AND/OR OBSTRUCTIONS TO VISIBILITY.

* THESE STATIONS ARE NOT UNDER NWS QUALITY CONTROL. THEY ALSO MAY NOT
  REPORT WEATHER SUCH AS PRECIPITATION OR FOG.

ILZ001-002-007-009-015-016-024-180700-
NORTHWEST ILLINOIS

CITY           SKY/WX    TMP DP  RH WIND       PRES   REMARKS
MOLINE         CLEAR     19  15  84 CALM      30.31S
6HR MIN TEMP:  18; 6HR MAX TEMP:  24;

STERLING*      CLEAR     19  14  79 CALM      30.30F
$$

ILZ003-004-008-010-011-017-018-180700-
NORTH CENTRAL ILLINOIS

CITY           SKY/WX    TMP DP  RH WIND       PRES   REMARKS
ROCKFORD       CLOUDY    23  14  68 NW6       30.32S WCI  16
6HR MIN TEMP:  23; 6HR MAX TEMP:  24;

$$

ILZ005-006-012>014-019>023-180700-
NORTHEAST ILLINOIS

CITY           SKY/WX    TMP DP  RH WIND       PRES   REMARKS
CHICAGO-OHARE  CLOUDY    24  15  68 NW9       30.29R WCI  14
6HR MIN TEMP:  24; 6HR MAX TEMP:  25; 6HR PCP: TRACE;

CHICAGO-MIDWAY CLOUDY    27  16  63 NW7       30.30R WCI  19
6HR MIN TEMP:  26; 6HR MAX TEMP:  27;

AURORA         CLOUDY    24  15  68 NW6       30.30R WCI  17
6HR MIN TEMP:  24; 6HR MAX TEMP:  25;

WAUKEGAN       CLEAR     20  13  74 W5        30.28R WCI  13
6HR MIN TEMP:  19; 6HR MAX TEMP:  24;

DUPAGE AIRPORT CLOUDY    24  15  68 NW3       30.28S
6HR MIN TEMP:  24; 6HR MAX TEMP:  25;

WHEELING       CLOUDY    24  15  68 NW6       30.31R WCI  17
6HR MIN TEMP:  24; 6HR MAX TEMP:  25;

NORTHERLY ISL    N/A     26  16  65 SW5         N/A  WCI  21
$$

LMZ740>746-180700-
SOUTHERN LAKE MICHIGAN

STATION/POSITION SKY/WX   TEMP    WIND        PRES    VSBY  WAVE
                          AIR SEA DIR/SP/G                  HT/PER
                          (F)     (DEG/KT/KT) (MB)    (MI)  (FT/S)
WAUKEGAN HARBOR            22     280/  3/ 10   N/A
HARRISON CRIB              25     270/  8/ 11   N/A
BURNHAM HARBOR             26      CALM  /  9   N/A
CALUMET HARBOR             25     270/  2/  3 1024.6R
$$

ILZ025>027-034>036-040-047-049-050-058-095>099-180700-
WEST-CENTRAL ILLINOIS

CITY           SKY/WX    TMP DP  RH WIND       PRES   REMARKS
QUINCY         CLOUDY    25  20  81 CALM      30.30F
MACOMB*        CLOUDY    21  19  94 CALM      30.33R
$$

ILZ028>032-037-038-041>044-048-051>054-059>061-180700-
CENTRAL ILLINOIS

CITY           SKY/WX    TMP DP  RH WIND       PRES   REMARKS
DECATUR        CLOUDY    24  20  84 CALM      30.31S
PEORIA         PTCLDY    21  17  84 CALM      30.31R
6HR MIN TEMP:  21; 6HR MAX TEMP:  26;

LINCOLN*       MOCLDY    22  20  91 CALM      30.33R
SPRINGFIELD    CLOUDY    23  20  88 CALM      30.31S
6HR MIN TEMP:  21; 6HR MAX TEMP:  24;

TAYLORVILLE    NOT AVBL
$$

ILZ033-039-045-046-055>057-062-063-180700-
EAST-CENTRAL ILLINOIS

CITY           SKY/WX    TMP DP  RH WIND       PRES   REMARKS
CHAMPAIGN      CLOUDY    26  18  71 N6        30.29F WCI  19
MATTOON        CLOUDY    24  17  74 NE5       30.29F WCI  18
$$

ILZ079-100>102-180700-
SOUTHWEST ILLINOIS

CITY           SKY/WX    TMP DP  RH WIND       PRES   REMARKS
BELLEVILLE     CLOUDY    30  27  88 NE6       30.31R WCI  24
CAHOKIA*       CLOUDY    32  26  78 NE6       30.31S WCI  26
$$

ILZ064>066-069>071-074>076-080>082-084>086-088>090-092>094-180700-
SOUTH-CENTRAL ILLINOIS

CITY           SKY/WX    TMP DP  RH WIND       PRES   REMARKS
CARBONDALE     CLOUDY    33  27  78 E5        30.31S WCI  29
6HR MIN TEMP:  30; 6HR MAX TEMP:  35;

MT. VERNON     CLOUDY    28  21  74 NE5       30.32R WCI  23
$$

ILZ067-068-072-073-078-083-087-091-180700-
SOUTHEAST ILLINOIS

CITY           SKY/WX    TMP DP  RH WIND       PRES   REMARKS
LAWRENCEVILLE  CLOUDY    26  21  81 N8        30.32R WCI  18
$$

ABBREVIATIONS USED IN REMARKS
   TC - TEMPERATURE IN CELSIUS
  WCI - WIND CHILL INDEX
   HX - HEAT INDEX
  VSB - VISIBILITY
$$



USA.gov is the U.S. government's official web portal to all federal, state and local government web resources and services.